Погода в Хорне

Нидерланды     52°38′50″N   5°04′45″E
темп.,
°C
ветер,
м/с
пор.,
м/с
влажн.,
%
обл.,
%
осадки,
мм/ч
давл.,
гПа
погр.,
м
16 мая, вс
вс1623:00+9ююв349546 0.4 1000114
02:00+6ююз339731 0.5 100033
05:00+8ююз349682 0.0 99985
08:00+10ююз4693100 0.3 999227
11:00+11зюз4688100 1.1 1000532
14:00+13зюз6772100 2.7 10001165
17:00+13зюз45695 0.8 9991046
20:00+11юз34807 0.8 999277
17 мая, пн
пн1723:00+7ююз228964 0.0 100022
02:00+7ю3487100 0.0 100066
05:00+7ю369617 0.3 999126
08:00+9ю3597100 0.8 1000240
11:00+12ююз458893 0.8 1001596
14:00+10з249691 2.8 1003242
17:00+12ссз668220 1.6 1004746
20:00+11зсз46865 1.7 1006535
18 мая, вт
вт1823:00+7зюз33965 0.0 100842
02:00+6юз3395100 0.0 100833
05:00+6юз229357 0.0 100813
08:00+9зюз1186100 0.0 1008106
11:00+11зсз2380100 0.6 1010625
14:00+12зсз5680100 1.4 1011843
17:00+12зсз457992 1.1 1012930
20:00+11зсз34875 1.6 1013479
19 мая, ср
ср1923:00+7юз22967 0.0 101423
02:00+6ююз339523 0.0 101433
05:00+6ю34966 0.1 101359
08:00+9ююз349331 0.4 1013165
11:00+13з457548 1.9 1014766
14:00+14сз56605 2.4 10151199
17:00+13сз67690 0.0 1016949
20:00+11сз47835 0.0 1018530
20 мая, чт
чт2023:00+7ссз359598 0.0 102078
02:00+7сз479122 0.0 1021136
05:00+6зсз4791100 0.0 1022174
08:00+9сз47800 0.0 1023755
11:00+11сз556749 0.1 10241201
14:00+13зсз466031 0.3 10241576
17:00+12з57655 0.1 10231456
20:00+10зюз467857 0.1 1022641